This is the latest recevied weather packets stored in our database for station/object WX4LTG. If no packets are shown the sender has not sent any weather packets the latest 1 day(s).
| Time | Temp. | Humidity | Pressure | Rain* | Wind** | Luminosity | Snow |
|---|---|---|---|---|---|---|---|
| 1778039585 | 21.67° C | 28% | 1011.7 hPa | 0 mm | 0.45 m/s, 94° | 0 W/m² | - |
| 1778039282 | 21.67° C | 28% | 1011.9 hPa | 0 mm | 0.89 m/s, 213° | 0 W/m² | - |
| 1778038979 | 21.67° C | 28% | 1011.7 hPa | 0 mm | 2.24 m/s, 213° | 0 W/m² | - |
| 1778038676 | 21.67° C | 28% | 1011.7 hPa | 0 mm | 0 m/s | 0 W/m² | - |
| 1778038373 | 21.67° C | 28% | 1011.4 hPa | 0 mm | 1.34 m/s, 258° | 0 W/m² | - |
| 1778038070 | 21.67° C | 28% | 1011.7 hPa | 0 mm | 1.34 m/s, 252° | 0 W/m² | - |
| 1778037767 | 21.67° C | 28% | 1011.4 hPa | 0 mm | 1.79 m/s, 251° | 0 W/m² | - |
| 1778037464 | 22.22° C | 28% | 1011.4 hPa | 0 mm | 3.13 m/s, 222° | 0 W/m² | - |
| 1778037161 | 21.67° C | 28% | 1011.2 hPa | 0 mm | 2.24 m/s, 244° | 0 W/m² | - |
| 1778036859 | 22.22° C | 28% | 1011.4 hPa | 0 mm | 2.24 m/s, 248° | 0 W/m² | - |
| 1778036556 | 22.22° C | 28% | 1011.4 hPa | 0 mm | 1.79 m/s, 234° | 0 W/m² | - |
| 1778036253 | 22.22° C | 27% | 1011.3 hPa | 0 mm | 0 m/s | 0 W/m² | - |
| 1778035950 | 22.22° C | 27% | 1011.3 hPa | 0 mm | 3.58 m/s, 256° | 0 W/m² | - |
| 1778035647 | 22.22° C | 27% | 1011.3 hPa | 0 mm | 2.68 m/s, 227° | 0 W/m² | - |
| 1778035343 | 22.22° C | 27% | 1011 hPa | 0 mm | 1.34 m/s, 236° | 0 W/m² | - |
| 1778035039 | 22.22° C | 26% | 1011.1 hPa | 0 mm | 1.34 m/s, 261° | 0 W/m² | - |
| 1778034737 | 22.22° C | 27% | 1011 hPa | 0 mm | 1.34 m/s, 240° | 0 W/m² | - |
| 1778034433 | 22.78° C | 26% | 1010.8 hPa | 0 mm | 2.68 m/s, 229° | 0 W/m² | - |
| 1778034131 | 22.78° C | 27% | 1010.6 hPa | 0 mm | 1.79 m/s, 253° | 1 W/m² | - |
| 1778033829 | 22.78° C | 27% | 1010.5 hPa | 0 mm | 1.34 m/s, 253° | 2 W/m² | - |
| 1778033526 | 22.78° C | 26% | 1010.3 hPa | 0 mm | 2.68 m/s, 231° | 4 W/m² | - |
| 1778033223 | 22.78° C | 27% | 1010.4 hPa | 0 mm | 2.68 m/s, 258° | 6 W/m² | - |
| 1778032921 | 22.78° C | 26% | 1010.3 hPa | 0 mm | 3.58 m/s, 241° | 9 W/m² | - |
| 1778032618 | 22.78° C | 27% | 1010.2 hPa | 0 mm | 2.24 m/s, 233° | 13 W/m² | - |
| 1778032315 | 22.78° C | 27% | 1010.1 hPa | 0 mm | 2.68 m/s, 266° | 17 W/m² | - |
* Rain latest hour (hover to see other rain measurements)
** Current wind speed in m/s (hover to see current wind gust speed)